Lorain / Elyria, OH

1:24 AM EDT on March 30, 2017 (GMT -0400)
Lorain County Regional

Weather History for KLPR - April, 2013

Change the Weather History Date:

Monday, April 8, 2013

  Actual Average (KCLE) Record (KCLE)
Temperature  
Mean Temperature 54 °F -  
Max Temperature 73 °F 53 °F 80 °F (2001)
Min Temperature 37 °F 33 °F 11 °F (1982)
Degree Days  
Heating Degree Days 10    
Growing Degree Days 4 (Base 50)    
Moisture  
Dew Point 44 °F    
Average Humidity 65    
Maximum Humidity 83    
Minimum Humidity 44    
Precipitation  
Precipitation 0.03 in - - ()
Sea Level Pressure  
Sea Level Pressure 29.93 in    
Wind  
Wind Speed 11 mph (SSW)    
Max Wind Speed 28 mph    
Max Gust Speed 39 mph    
Visibility 9 miles    
Events Thunderstorm    
Averages and records for this station are not official NWS values.
T = Trace of Precipitation, MM = Missing Value Source: NWS Daily Summary

Daily Weather History Graph

Daily Weather History Graph

Search for Another Location

Airport or City:

Trip Planner

Search our weather history database for the weather conditions in past years. The results will help you decide how hot, cold, wet, or windy it might be!

Date:

Astronomy

Apr. 08, 2013 Rise Set
Actual Time 6:59 AM EDT 8:01 PM EDT
Civil Twilight 6:31 AM EDT 8:30 PM EDT
Nautical Twilight 5:58 AM EDT 9:03 PM EDT
Astronomical Twilight 5:23 AM EDT 9:39 PM EDT
Moon 5:50 AM EDT (4/8) 6:34 PM EDT (4/8)
Length of Visible Light 13h 58m
Length of Day
13h 01m
Waning Crescent, 3% of the Moon is Illuminated
Apr 8
Waning Crescent
Apr 10
New
Apr 18
First Quarter
Apr 25
Full
May 2
Last Quarter

Hourly Weather History & Observations

Time (EDT) Temp. Windchill Dew Point Humidity Pressure Visibility Wind Dir Wind Speed Gust Speed Precip Events Conditions
12:53 AM 43.0 °F 38.8 °F 35.1 °F 74% 30.04 in 9.0 mi ENE 6.9 mph - N/A   Clear
1:53 AM 41.0 °F 36.4 °F 34.0 °F 76% 30.05 in 9.0 mi ENE 6.9 mph - N/A   Clear
2:53 AM 41.0 °F 36.4 °F 34.0 °F 76% 30.04 in 9.0 mi East 6.9 mph - N/A   Clear
3:53 AM 39.0 °F 34.0 °F 33.1 °F 79% 30.04 in 8.0 mi East 6.9 mph - N/A   Clear
4:53 AM 39.0 °F 34.0 °F 34.0 °F 82% 30.02 in 7.0 mi East 6.9 mph - N/A   Clear
5:53 AM 39.0 °F 34.8 °F 33.1 °F 79% 30.02 in 8.0 mi SE 5.8 mph - N/A   Clear
6:53 AM 37.9 °F 33.5 °F 33.1 °F 83% 30.01 in 7.0 mi SE 5.8 mph - N/A   Clear
7:53 AM 42.1 °F 37.1 °F 36.0 °F 79% 30.01 in 7.0 mi SSE 8.1 mph - N/A   Partly Cloudy
8:53 AM 48.0 °F - 37.9 °F 68% 30.00 in 7.0 mi SSE 9.2 mph - N/A   Clear
9:53 AM 55.0 °F - 41.0 °F 59% 29.97 in 9.0 mi South 10.4 mph - N/A   Clear
10:53 AM 55.9 °F - 43.0 °F 62% 29.96 in 9.0 mi South 15.0 mph - N/A   Overcast
11:53 AM 61.0 °F - 46.0 °F 58% 29.92 in 10.0 mi South 12.7 mph - N/A   Partly Cloudy
12:53 PM 66.0 °F - 46.9 °F 50% 29.89 in 10.0 mi SSW 13.8 mph 21.9 mph N/A   Partly Cloudy
1:53 PM 70.0 °F - 46.9 °F 44% 29.84 in 10.0 mi South 17.3 mph 31.1 mph N/A   Mostly Cloudy
2:53 PM 70.0 °F - 46.9 °F 44% 29.84 in 10.0 mi SW 23.0 mph 32.2 mph N/A   Overcast
3:53 PM 70.0 °F - 48.0 °F 46% 29.83 in 10.0 mi SW 21.9 mph 29.9 mph N/A   Overcast
4:53 PM 72.0 °F - 50.0 °F 46% 29.81 in 10.0 mi SW 27.6 mph 39.1 mph N/A   Mostly Cloudy
5:53 PM 70.0 °F - 50.0 °F 49% 29.82 in 10.0 mi SW 25.3 mph 39.1 mph N/A   Mostly Cloudy
6:53 PM 71.1 °F - 51.1 °F 49% 29.82 in 10.0 mi SW 19.6 mph 34.5 mph N/A   Mostly Cloudy
7:53 PM 69.1 °F - 51.1 °F 53% 29.83 in 10.0 mi WSW 19.6 mph 31.1 mph N/A   Clear
8:53 PM 66.9 °F - 52.0 °F 59% 29.86 in 10.0 mi WSW 16.1 mph 24.2 mph N/A   Scattered Clouds
9:53 PM 66.0 °F - 52.0 °F 60% 29.88 in 10.0 mi WSW 12.7 mph - N/A   Scattered Clouds
10:32 PM 64.4 °F - 53.6 °F 68% 29.90 in 10.0 mi West 8.1 mph 19.6 mph 0.00 in Thunderstorm Mostly Cloudy
10:53 PM 61.0 °F - 54.0 °F 78% 29.93 in 10.0 mi West 13.8 mph - 0.03 in Thunderstorm Overcast
11:08 PM 62.6 °F - 55.4 °F 77% 29.93 in 10.0 mi West 8.1 mph - N/A   Mostly Cloudy
11:53 PM 61.0 °F - 55.0 °F 81% 29.96 in 10.0 mi WNW 5.8 mph - N/A   Mostly Cloudy